Regional Weather Roundup
Issued by NWS Glasgow, MT

Home | Current Version | Previous Version | Text Only | Print | Product List | Glossary On
Versions: 1 2 3 4 5 6 7 8 9 10 11 12 13 14 15 16 17 18 19 20 21 22 23 24 25 26 27 28
000
ASUS45 KGGW 280315
RWRGGW
HOURLY REGIONAL WEATHER ROUNDUP FOR NORTHEAST MONTANA
NATIONAL WEATHER SERVICE GLASGOW MONTANA
900 PM MDT SAT MAY 27 2017

NOTE: "FAIR" INDICATES FEW OR NO CLOUDS BELOW 12,000 FEET WITH NO
SIGNIFICANT WEATHER AND/OR OBSTRUCTIONS TO VISISBILITY.

NORTHEAST MONTANA


CITY           SKY/WX    TMP DP  RH WIND       PRES   REMARKS
GLASGOW        PTCLDY    65  38  36 NW9       29.95S
PLENTYWOOD       N/A     63  28  26 N20G32      N/A
WOLF POINT     CLOUDY    67  37  33 NW10      29.92R
JORDAN           N/A     63  34  33 NW3       29.98S
WINNETT          N/A     62  40  44 W10G23      N/A
SIDNEY         PTCLDY    58  39  49 NW9       29.89S
GLENDIVE       PTCLDY    61  38  42 NW9       29.94S
MALTA            N/A     69  37  30 NW12G23     N/A
SCOBEY           N/A     62  33  33 CALM      29.93
OPHEIM           N/A     61  37  41 W8        29.76

FORT PECK REPORTS


CITY           SKY/WX    TMP DP  RH WIND       PRES   REMARKS
FORT PECK        N/A     69  39  33 NW21G36     N/A
THE PINES        N/A     66  35  31 N3          N/A

SOUTHEAST MONTANA


CITY           SKY/WX    TMP DP  RH WIND       PRES   REMARKS
BILLINGS       MOCLDY    65  38  36 W13       30.10S
MILES CITY     CLEAR     63  34  33 NW7       29.99R
BAKER          CLEAR     57  39  51 CALM      29.98S
LIVINGSTON     CLEAR     56  39  53 SW12      30.17S

CENTRAL MONTANA


CITY           SKY/WX    TMP DP  RH WIND       PRES   REMARKS
HAVRE          CLOUDY    67  45  45 NE15G23   30.05R
LEWISTOWN      CLEAR     54  42  64 SW13      30.12S
GREAT FALLS    MOCLDY    62  42  47 S6        30.10S
CUT BANK       CLEAR     62  40  44 W9        30.10S
HELENA         CLOUDY    69  36  29 W8        30.13S
BUTTE          CLEAR     62  32  32 NW5       30.23S
BOZEMAN        CLEAR     64  34  32 SE3       30.18S

WESTERN MONTANA


CITY           SKY/WX    TMP DP  RH WIND       PRES   REMARKS
MISSOULA       CLEAR     71  41  33 S5        30.14S
KALISPELL      NOT AVBL

NORTH DAKOTA


CITY           SKY/WX    TMP DP  RH WIND       PRES   REMARKS
WILLISTON      PTCLDY    65  44  46 N13       29.87R
DICKINSON      CLEAR     54  38  54 W10       29.88S
MINOT          CLEAR     54  45  71 CALM      29.82S
BISMARCK       CLEAR     58  44  60 SW3       29.86R

SOUTHERN SASKATCHEWAN


CITY           SKY/WX    TMP DP  RH WIND       PRES   REMARKS
REGINA         PTCLDY    61  36  39 N14       29.90R
ESTEVAN        PTCLDY    55  43  62 N9        29.85R
SWIFT CURRENT  CLEAR     61  36  39 N10       29.97R





USA.gov is the U.S. government's official web portal to all federal, state and local government web resources and services.